星链-6120 (STARLINK-6120 )

导读 | 星芒AI

STARLINK-6120 是 SpaceX Starlink 卫星互联网项目中的一颗低轨卫星,属于第61批发射的星链卫星之一。该卫星部署在约550公里高度的近地轨道,旨在为全球用户提供高速、低延迟的宽带互联网服务。作为星链星座的一部分,STARLINK-6120 采用先进推进系统和激光通信技术,支持卫星间高速数据传输,提升网络稳定性和覆盖范围。该卫星的发射和运行有助于扩展 Starlink 在偏远和网络基础设施薄弱地区的服务能力。

基本信息
目录编号:
56131
目录名称:
STARLINK-6120
国际标识:
2023-046AR
轨道中心:
EARTH
卫星名称:
星链-6120
卫星全名:
星链-6120 (STARLINK-6120 )
卫星状态:
在轨 (已飞行951 天)
发射日期:
2023-03-29 UTC
国别 :
美国 (US)
星等 :
--
轨道信息
数据来源 国际轨道数据
星历时间: 2025-11-02T19:03:21+0800
1天前
查看轨道信息
半长轴: 6937.214km
偏心率: 0.0001113
轨道倾角: 43.002°
近地点辐角 272.625°
升交点赤经 117.272°
平近点角 87.447°
近地点: 558.306km
远地点: 559.852km
周期: 95.838分钟
每日圈数: 15.02537
详细信息
固有亮度:
5
最大亮度:
2.5
卫星平台:
Starlink v1.5
覆盖范围:
全球
运营商:
太空探索技术公司
运营商所在国:
美国
制造商(研发单位):
太空探索技术公司
制造商所在国:
美国
使用方式:
暂无
卫星简介
星链(Starlink)计划是由太空探索技术公司(SpaceX)提出的一个巨型低轨卫星互联网星座项目,计划在2019年至2024年间在太空搭建由约1.2万颗卫星组成的“星链”网络,其中1584颗将部署在地球上空550千米处的近地轨道,并从2020年开始工作。该卫星仍在工作。
2D轨道图
3D轨道图
轨道高度分析图
轨道倾角分析图
轨道综合分析图
查看轨道综合分析图